TimeEST,TemperatureF,Dew PointF,Humidity,Sea Level PressureIn,VisibilityMPH,Wind Direction,Wind SpeedMPH,Gust SpeedMPH,PrecipitationIn,Events,Conditions,WindDirDegrees,DateUTC
12:53 AM,69.1,64.9,87,30.10,10.0,NNW,3.5,-,N/A,,Mostly Cloudy,330,2013-02-20 05:53:00
1:53 AM,66.9,64.9,93,30.08,10.0,Calm,Calm,-,N/A,,Scattered Clouds,0,2013-02-20 06:53:00
2:53 AM,66.9,64.9,93,30.07,10.0,NNW,5.8,-,N/A,,Scattered Clouds,340,2013-02-20 07:53:00
3:53 AM,66.9,64.9,93,30.06,10.0,NNW,4.6,-,N/A,,Mostly Cloudy,340,2013-02-20 08:53:00
4:53 AM,68.0,64.0,87,30.06,10.0,Calm,Calm,-,N/A,,Overcast,0,2013-02-20 09:53:00
5:53 AM,66.9,64.0,90,30.06,10.0,NNW,5.8,-,N/A,,Partly Cloudy,340,2013-02-20 10:53:00
6:53 AM,68.0,64.0,87,30.10,10.0,North,5.8,-,N/A,,Mostly Cloudy,10,2013-02-20 11:53:00
7:53 AM,69.1,63.0,81,30.11,10.0,North,5.8,-,N/A,,Mostly Cloudy,10,2013-02-20 12:53:00
8:53 AM,72.0,63.0,73,30.11,10.0,North,9.2,-,N/A,,Scattered Clouds,360,2013-02-20 13:53:00
9:53 AM,75.0,57.9,55,30.12,10.0,NE,5.8,-,N/A,,Partly Cloudy,40,2013-02-20 14:53:00
10:53 AM,77.0,59.0,54,30.11,10.0,ENE,9.2,-,N/A,,Partly Cloudy,60,2013-02-20 15:53:00
11:53 AM,75.9,63.0,64,30.09,10.0,NE,10.4,-,N/A,,Mostly Cloudy,50,2013-02-20 16:53:00
12:53 PM,77.0,63.0,62,30.08,10.0,ENE,11.5,-,N/A,,Mostly Cloudy,70,2013-02-20 17:53:00
1:53 PM,77.0,64.0,64,30.04,10.0,ENE,11.5,-,N/A,,Scattered Clouds,70,2013-02-20 18:53:00
2:53 PM,75.0,66.0,73,30.04,10.0,ESE,15.0,-,N/A,,Mostly Cloudy,120,2013-02-20 19:53:00
3:53 PM,73.9,66.9,79,30.02,10.0,ESE,15.0,-,N/A,,Scattered Clouds,110,2013-02-20 20:53:00
4:53 PM,73.9,66.0,76,30.02,10.0,East,11.5,-,N/A,,Partly Cloudy,100,2013-02-20 21:53:00
5:53 PM,72.0,64.9,78,30.03,10.0,ESE,8.1,-,N/A,,Partly Cloudy,110,2013-02-20 22:53:00
6:53 PM,71.1,64.9,81,30.06,10.0,Calm,Calm,-,N/A,,Partly Cloudy,0,2013-02-20 23:53:00
7:53 PM,71.1,64.9,81,30.07,7.0,SE,3.5,-,N/A,,Scattered Clouds,130,2013-02-21 00:53:00
8:53 PM,71.1,66.0,84,30.07,9.0,ESE,3.5,-,N/A,,Mostly Cloudy,120,2013-02-21 01:53:00
9:53 PM,73.0,66.0,79,30.08,10.0,ENE,3.5,-,N/A,,Overcast,60,2013-02-21 02:53:00
10:53 PM,73.0,64.9,76,30.09,10.0,East,4.6,-,N/A,,Overcast,90,2013-02-21 03:53:00
11:53 PM,72.0,66.9,84,30.07,10.0,East,5.8,-,N/A,,Mostly Cloudy,100,2013-02-21 04:53:00